Location: *
(2.5500°S, 65.9667°W)
Time: 10:49:48
(UTC+00:00)

Cosmos 2084 - Pass Details

Date: 26 October 2021
Orbit: 525 x 656 km, 62.8° (Epoch: 28 November)

Event Time Altitude Azimuth Distance (km) Brightness Sun altitude
Rises 22:48:56 0° 214° (SSW) 2,706 7.6 -9.4°
Reaches altitude 10° 22:51:13 10° 219° (SW) 1,795 6.8 -10.0°
Maximum altitude 22:55:05 46° 293° (WNW) 712 4.3 -10.9°
Drops below altitude 10° 22:58:51 10° 8° (N) 1,753 5.7 -11.9°
Sets 23:01:04 0° 14° (NNE) 2,636 6.5 -12.4°
